N8GD Weather Reports


time (UTC)temp
C
wind
direction
speed
KPH
gust
KPH
rain 1hr
cm
rain 24hr
cm
rain mn
cm
humidity
%
barometer
mb
20260508085148 3 275 0.0 0.0 0.00 0.00 0.00 90 1014.2
20260508084534 3 275 0.0 0.0 0.00 0.00 0.00 90 1014.2
20260508083650 3 275 0.0 0.0 0.00 0.00 0.00 90 1014.4
20260508083033 3 275 0.0 0.0 0.00 0.00 0.00 90 1014.4
20260508082147 3 275 0.0 0.0 0.00 0.00 0.00 90 1014.2
20260508081532 2 275 0.0 0.0 0.00 0.00 0.00 90 1014.2
20260508080715 2 275 0.0 0.0 0.00 0.00 0.00 90 1014.3
20260508080032 2 275 0.0 0.0 0.00 0.00 0.00 90 1014.3
20260508075143 2 275 0.0 0.0 0.00 0.00 0.00 90 1014.2
20260508074532 2 275 0.0 0.0 0.00 0.00 0.00 90 1014.2
20260508073658 2 275 0.0 0.0 0.00 0.00 0.00 89 1014.1
20260508073032 2 275 0.0 0.0 0.00 0.00 0.00 89 1014.1
20260508072142 2 275 0.0 0.0 0.00 0.00 0.00 89 1014.1
20260508071533 2 275 0.0 0.0 0.00 0.00 0.00 89 1014.1
20260508070033 2 275 0.0 0.0 0.00 0.00 0.00 88 1014.1
20260508065147 2 275 0.0 0.0 0.00 0.00 0.00 88 1014.2
20260508064532 2 275 0.0 0.0 0.00 0.00 0.00 88 1014.2
20260508063033 2 275 0.0 0.0 0.00 0.00 0.00 88 1014.1
20260508062145 2 275 0.0 0.0 0.00 0.00 0.00 87 1014.4
20260508061532 2 275 0.0 0.0 0.00 0.00 0.00 87 1014.4
20260508060701 2 275 0.0 0.0 0.00 0.00 0.00 87 1014.4
20260508060032 2 275 0.0 0.0 0.00 0.00 0.00 86 1014.4
20260508055144 2 275 0.0 0.0 0.00 0.00 0.00 87 1014.5
20260508054534 2 275 0.0 0.0 0.00 0.00 0.00 86 1014.5
20260508053729 2 275 0.0 0.0 0.00 0.00 0.00 86 1014.6
20260508053034 2 275 0.0 0.0 0.00 0.00 0.00 86 1014.6
20260508052148 2 275 0.0 0.0 0.00 0.00 0.00 85 1014.7
20260508051533 2 275 0.0 0.0 0.00 0.00 0.00 85 1014.7
20260508050703 2 275 0.0 0.0 0.00 0.00 0.00 84 1014.5
20260508050033 2 275 0.0 0.0 0.00 0.00 0.00 84 1014.5
20260508045142 2 275 0.0 0.0 0.00 0.00 0.00 84 1014.5
20260508045028 2 275 0.0 0.0 0.00 0.00 0.00 83 1014.5
20260508043528 2 275 0.0 0.0 0.00 0.00 0.00 82 1014.5
20260508042028 3 275 0.0 0.0 0.00 0.00 0.00 81 1014.5
20260508040644 3 275 0.0 0.0 0.00 0.00 0.00 80 1014.5
20260508040528 3 275 0.0 0.0 0.00 0.00 0.00 80 1014.5
20260508035147 3 275 0.0 0.0 0.00 0.00 0.00 79 1014.4
20260508035027 3 275 0.0 0.0 0.00 0.00 0.00 79 1014.4
20260508033528 3 275 0.0 0.0 0.00 0.00 0.00 76 1014.4
20260508032027 4 275 0.0 0.0 0.00 0.00 0.00 75 1014.4
20260508030651 5 275 0.0 0.0 0.00 0.00 0.00 72 1014.4
20260508030528 5 275 0.0 0.0 0.00 0.00 0.00 72 1014.4
20260508025200 5 275 0.0 0.0 0.00 0.00 0.00 69 1014.5
20260508025028 5 275 0.0 0.0 0.00 0.00 0.00 69 1014.5
20260508023652 5 275 0.0 0.0 0.00 0.00 0.00 67 1014.5
20260508023528 6 275 0.0 0.0 0.00 0.00 0.00 67 1014.5
20260508022152 6 275 0.0 0.0 0.00 0.00 0.00 65 1014.4
20260508022029 6 275 0.0 0.0 0.00 0.00 0.00 65 1014.4
20260508020732 7 275 0.0 0.0 0.00 0.00 0.00 61 1014.2
20260508020528 7 275 0.0 0.0 0.00 0.00 0.00 60 1014.2
20260508015243 8 275 0.0 0.0 0.00 0.00 0.00 59 1014.0
20260508013742 8 275 0.0 0.0 0.00 0.00 0.00 56 1013.9
20260508012244 9 275 0.0 0.0 0.00 0.00 0.00 52 1013.8
20260508012155 9 275 0.0 0.0 0.00 0.00 0.00 51 1013.8
20260508010743 10 303 0.0 6.4 0.00 0.00 0.00 49 1013.5
20260508005242 10 308 0.0 6.4 0.00 0.00 0.00 48 1013.4
20260508003743 11 275 0.0 12.9 0.00 0.00 0.00 46 1013.2
20260508002242 11 325 3.2 12.9 0.00 0.00 0.00 45 1013.1
20260508000743 11 221 6.4 14.5 0.00 0.00 0.00 45 1012.8
20260507235244 12 275 0.0 17.7 0.00 0.00 0.00 47 1012.8
20260507233742 12 275 8.0 25.7 0.00 0.00 0.00 46 1012.7
20260507232244 13 241 12.9 25.7 0.00 0.00 0.00 45 1012.5
20260507232144 13 285 3.2 17.7 0.00 0.00 0.00 45 1012.5
20260507230742 13 283 14.5 25.7 0.00 0.00 0.00 45 1012.3
20260507225244 13 237 1.6 19.3 0.00 0.00 0.00 43 1012.3
20260507223742 14 243 3.2 19.3 0.00 0.00 0.00 41 1012.1
20260507222242 14 298 1.6 25.7 0.00 0.00 0.00 43 1011.8
20260507220743 14 250 8.0 25.7 0.00 0.00 0.00 41 1011.7
20260507215244 15 331 0.0 19.3 0.00 0.00 0.00 39 1011.4
20260507213742 15 255 3.2 16.1 0.00 0.00 0.00 43 1011.2
20260507212243 14 270 9.7 19.3 0.00 0.00 0.00 41 1011.1
20260507210744 15 225 14.5 14.5 0.00 0.00 0.00 41 1011.1
20260507205243 14 235 3.2 22.5 0.00 0.00 0.00 39 1011.1
20260507203744 16 280 8.0 22.5 0.00 0.00 0.00 40 1011.2
20260507202243 15 281 4.8 17.7 0.00 0.00 0.00 39 1011.1
20260507200744 15 331 0.0 17.7 0.00 0.00 0.00 40 1011.2
20260507195243 15 235 3.2 22.5 0.00 0.00 0.00 43 1011.4
20260507193744 15 294 0.0 20.9 0.00 0.00 0.00 41 1011.6
20260507193646 15 294 0.0 20.9 0.00 0.00 0.00 41 1011.6
20260507192243 15 275 0.0 25.7 0.00 0.00 0.00 43 1011.5
20260507190743 15 319 4.8 16.1 0.00 0.00 0.00 38 1011.6
20260507185242 15 243 0.0 27.4 0.00 0.00 0.00 42 1011.7
20260507183744 14 250 6.4 14.5 0.00 0.00 0.00 41 1011.7
20260507182243 14 280 11.3 19.3 0.00 0.00 0.00 45 1011.9
20260507180742 14 220 0.0 17.7 0.00 0.00 0.00 47 1011.9
20260507175244 14 321 0.0 24.1 0.00 0.00 0.00 49 1012.1
20260507173742 14 339 8.0 24.1 0.00 0.00 0.00 44 1012.2
20260507172244 14 319 14.5 25.7 0.00 0.00 0.00 43 1012.3
20260507170742 13 238 12.9 17.7 0.00 0.00 0.00 46 1012.5
20260507165243 13 302 9.7 19.3 0.00 0.00 0.00 47 1012.6
20260507163742 13 314 0.0 19.3 0.00 0.00 0.00 48 1012.7
20260507162244 13 270 1.6 17.7 0.00 0.00 0.00 48 1012.8
20260507162144 13 270 1.6 17.7 0.00 0.00 0.00 48 1012.8
20260507160742 13 265 3.2 14.5 0.00 0.00 0.00 51 1012.8
20260507155244 12 233 3.2 12.9 0.00 0.00 0.00 51 1012.9
20260507153742 12 233 1.6 17.7 0.00 0.00 0.00 55 1012.9
20260507152243 12 260 12.9 16.1 0.00 0.00 0.00 52 1013.0
20260507152151 12 283 9.7 12.9 0.00 0.00 0.00 55 1013.0
20260507150744 12 252 3.2 16.1 0.00 0.00 0.00 55 1013.4
20260507145244 11 233 1.6 17.7 0.00 0.00 0.00 56 1013.4
20260507143742 11 233 0.0 17.7 0.00 0.00 0.00 60 1013.6
20260507142243 11 261 3.2 11.3 0.00 0.00 0.00 61 1013.9
20260507140742 11 231 1.6 11.3 0.00 0.00 0.00 67 1014.0
20260507135243 11 219 3.2 9.7 0.00 0.00 0.00 64 1014.3
20260507135147 11 202 1.6 8.0 0.00 0.00 0.00 64 1014.3
20260507133742 10 275 0.0 8.0 0.00 0.00 0.00 66 1014.2
20260507132243 10 270 3.2 6.4 0.00 0.00 0.00 70 1014.2
20260507132150 10 270 3.2 6.4 0.00 0.00 0.00 70 1014.2
20260507130747 8 199 1.6 4.8 0.00 0.03 0.00 74 1014.4
20260507130743 8 199 1.6 4.8 0.00 0.03 0.00 74 1014.4
20260507125243 8 244 0.0 4.8 0.00 0.05 0.00 80 1014.4
20260507123753 6 231 0.0 4.8 0.00 0.05 0.00 88 1014.5
20260507123744 7 231 0.0 4.8 0.00 0.05 0.00 87 1014.5
20260507122504 5 270 0.0 0.0 0.00 0.05 0.00 95 1014.3
20260507122242 5 243 0.0 1.6 0.00 0.05 0.00 95 1014.3
20260507122146 5 270 0.0 0.0 0.00 0.05 0.00 95 1014.3
20260507120742 3 282 0.0 0.0 0.00 0.08 0.00 95 1014.3
20260507115243 2 344 0.0 0.0 0.00 0.10 0.00 95 1014.3
20260507113758 2 344 0.0 0.0 0.00 0.10 0.00 94 1014.2
20260507113742 2 344 0.0 0.0 0.00 0.10 0.00 94 1014.2
20260507112243 1 344 0.0 0.0 0.00 0.10 0.00 94 1014.0
20260507112204 1 344 0.0 0.0 0.00 0.10 0.00 94 1014.0
20260507110742 1 344 0.0 0.0 0.00 0.10 0.00 93 1013.9
20260507110729 1 344 0.0 0.0 0.00 0.10 0.00 93 1013.9
20260507105242 1 344 0.0 0.0 0.00 0.10 0.00 93 1013.9
20260507105145 1 344 0.0 0.0 0.00 0.10 0.00 93 1013.9
20260507103743 1 344 0.0 0.0 0.00 0.10 0.00 93 1013.8
20260507103646 1 344 0.0 0.0 0.00 0.10 0.00 93 1013.8
20260507102242 1 344 0.0 0.0 0.00 0.15 0.00 92 1013.7
20260507102144 1 344 0.0 0.0 0.00 0.15 0.00 92 1013.7
20260507100742 1 344 0.0 0.0 0.00 0.23 0.00 92 1013.6
20260507095243 1 344 0.0 0.0 0.00 0.25 0.00 92 1013.6
20260507095144 1 344 0.0 0.0 0.00 0.25 0.00 92 1013.6
20260507093742 1 344 0.0 0.0 0.00 0.30 0.00 92 1013.4
20260507093729 1 344 0.0 0.0 0.00 0.30 0.00 92 1013.4
20260507093644 1 344 0.0 0.0 0.00 0.30 0.00 92 1013.4
20260507092244 1 344 0.0 0.0 0.00 0.33 0.00 91 1013.6
20260507092146 1 344 0.0 0.0 0.00 0.33 0.00 91 1013.6
20260507090742 1 344 0.0 0.0 0.00 0.38 0.00 91 1013.6
20260507090645 1 344 0.0 0.0 0.00 0.38 0.00 91 1013.6